Weather History for LRCK - August, 2014

Change the Weather History Date:

Tuesday, August 19, 2014

  Actual Average Record
Temperature  
Mean Temperature 70 °F -  
Max Temperature 82 °F 74 °F 95 °F (2006)
Min Temperature 59 °F 55 °F 55 °F (1997)
Cooling Degree Days 6    
Growing Degree Days 20 (Base 50)    
Moisture  
Dew Point 56 °F    
Average Humidity 63    
Maximum Humidity 94    
Minimum Humidity 30    
Precipitation  
Precipitation 0.00 in - - ()
Sea Level Pressure  
Sea Level Pressure 30.03 in    
Wind  
Wind Speed 6 mph ()    
Max Wind Speed 13 mph    
Max Gust Speed -    
Averages and records for this station are not official NWS values.
T = Trace of Precipitation, MM = Missing Value Source: Averaged Metar Reports

Daily Weather History Graph

Daily Weather History Graph

Search for Another Location

Airport or City:

Trip Planner

Search our weather history database for the weather conditions in past years. The results will help you decide how hot, cold, wet, or windy it might be!

Date:

Astronomy

Aug. 19, 2014 Rise Set
Actual Time 6:13 AM EEST 8:05 PM EEST
Civil Twilight 5:42 AM EEST 8:36 PM EEST
Nautical Twilight 5:04 AM EEST 9:14 PM EEST
Astronomical Twilight 4:23 AM EEST 9:55 PM EEST
Moon 12:47 AM EEST (8/19) 3:48 PM EEST (8/19)
Length of Visible Light 14h 53m
Length of Day
13h 51m
Waning Crescent, 32% of the Moon is Illuminated
Aug 19
Waning Crescent
Aug 25
New
Sep 2
First Quarter
Sep 9
Full
Sep 16
Last Quarter

Hourly Weather History & Observations

Time (EEST) Temp. Heat Index Dew Point Humidity Pressure Visibility Wind Dir Wind Speed Gust Speed Precip Events Conditions
12:00 AM 64.4 °F - 55.4 °F 73% 29.98 in - West 3.5 mph - N/A   Clear
12:30 AM 62.6 °F - 55.4 °F 77% 29.98 in - West 4.6 mph - N/A   Clear
1:00 AM 62.6 °F - 55.4 °F 77% 29.98 in - West 4.6 mph - N/A   Clear
1:30 AM 60.8 °F - 55.4 °F 82% 29.98 in - WNW 4.6 mph - N/A   Clear
2:00 AM 60.8 °F - 55.4 °F 82% 29.98 in - West 5.8 mph - N/A   Unknown
2:30 AM 59.0 °F - 55.4 °F 88% 29.98 in - WNW 5.8 mph - N/A   Clear
3:00 AM 59.0 °F - 55.4 °F 88% 29.98 in - West 6.9 mph - N/A   Clear
3:30 AM 60.8 °F - 55.4 °F 82% 29.98 in - WNW 6.9 mph - N/A   Clear
4:00 AM 59.0 °F - 55.4 °F 88% 29.98 in - WNW 6.9 mph - N/A   Clear
4:30 AM 59.0 °F - 55.4 °F 88% 29.98 in - WNW 8.1 mph - N/A   Clear
5:00 AM 59.0 °F - 57.2 °F 94% 29.98 in - West 5.8 mph - N/A   Clear
5:30 AM 60.8 °F - 57.2 °F 88% 29.98 in - WNW 6.9 mph - N/A   Clear
6:00 AM 59.0 °F - 55.4 °F 88% 30.01 in - NW 8.1 mph - N/A   Clear
6:30 AM 59.0 °F - 55.4 °F 88% 30.01 in - WNW 8.1 mph - N/A   Unknown
7:00 AM 60.8 °F - 57.2 °F 88% 30.01 in - WNW 3.5 mph - N/A   Clear
7:30 AM 64.4 °F - 57.2 °F 77% 30.04 in - Variable 5.8 mph - N/A   Clear
8:00 AM 68.0 °F - 57.2 °F 68% 30.04 in - WNW 4.6 mph - N/A   Clear
8:30 AM 69.8 °F - 57.2 °F 64% 30.04 in - WNW 3.5 mph - N/A   Clear
9:00 AM 71.6 °F - 57.2 °F 60% 30.04 in - Variable 2.3 mph - N/A   Clear
9:30 AM 73.4 °F - 57.2 °F 57% 30.04 in - WSW 3.5 mph - N/A   Clear
10:00 AM 77.0 °F - 51.8 °F 41% 30.04 in - NNW 3.5 mph - N/A   Clear
10:30 AM 78.8 °F - 48.2 °F 34% 30.04 in - NNE 3.5 mph - N/A   Clear
11:00 AM 78.8 °F - 50.0 °F 36% 30.04 in - NNE 4.6 mph - N/A   Clear
11:30 AM 80.6 °F - 48.2 °F 32% 30.04 in - North 2.3 mph - N/A   Clear
12:00 PM 80.6 °F - 51.8 °F 37% 30.06 in - WNW 4.6 mph - N/A   Clear
12:30 PM 80.6 °F - 46.4 °F 30% 30.04 in - Variable 2.3 mph - N/A   Clear
1:00 PM 82.4 °F 81.4 °F 53.6 °F 37% 30.04 in - Variable 3.5 mph - N/A   Clear
1:30 PM 80.6 °F - 46.4 °F 30% 30.04 in - Variable 4.6 mph - N/A   Clear
2:00 PM 80.6 °F 80.3 °F 53.6 °F 39% 30.04 in - East 5.8 mph - N/A   Clear
2:30 PM 80.6 °F 80.8 °F 57.2 °F 45% 30.04 in - ESE 8.1 mph - N/A   Clear
3:00 PM 80.6 °F 80.3 °F 53.6 °F 39% 30.04 in - ESE 10.4 mph - N/A   Clear
3:30 PM 80.6 °F 80.3 °F 53.6 °F 39% 30.04 in - SE 10.4 mph - N/A   Clear
4:00 PM 80.6 °F 80.5 °F 55.4 °F 42% 30.04 in - SE 10.4 mph - N/A   Clear
4:30 PM 80.6 °F - 51.8 °F 37% 30.04 in - ESE 11.5 mph - N/A   Clear
5:00 PM 78.8 °F - 51.8 °F 39% 30.04 in - SE 11.5 mph - N/A   Clear
5:30 PM 78.8 °F - 53.6 °F 42% 30.04 in - SE 12.7 mph - N/A   Clear
6:00 PM 78.8 °F - 57.2 °F 47% 30.04 in - SE 11.5 mph - N/A   Clear
6:30 PM 78.8 °F - 57.2 °F 47% 30.04 in - SE 11.5 mph - N/A   Clear
7:00 PM 77.0 °F - 57.2 °F 50% 30.04 in - SSE 11.5 mph - N/A   Clear
7:30 PM 75.2 °F - 59.0 °F 57% 30.04 in - South 9.2 mph - N/A   Clear
8:00 PM 73.4 °F - 60.8 °F 65% 30.04 in - SSE 6.9 mph - N/A   Clear
8:30 PM 69.8 °F - 60.8 °F 73% 30.04 in - SSE 6.9 mph - N/A   Clear
9:00 PM 68.0 °F - 60.8 °F 78% 30.06 in - South 6.9 mph - N/A   Clear
9:30 PM 68.0 °F - 60.8 °F 78% 30.06 in - SSE 6.9 mph - N/A   Clear
10:00 PM 66.2 °F - 60.8 °F 83% 30.06 in - South 8.1 mph - N/A   Clear
10:30 PM 66.2 °F - 60.8 °F 83% 30.06 in - South 8.1 mph - N/A   Clear
11:00 PM 64.4 °F - 60.8 °F 88% 30.06 in - SSE 6.9 mph - N/A   Clear
11:30 PM 66.2 °F - 60.8 °F 83% 30.06 in - South 8.1 mph - N/A   Clear